Regional Weather Roundup
Issued by NWS Memphis, TN

Home | Current Version | Previous Version | Text Only | Print | Product List | Glossary On
Versions: 1 2 3 4 5 6 7 8 9 10 11 12 13 14 15 16 17 18 19 20 21 22 23 24 25 26 27 28 29 30 31 32 33 34 35 36 37 38 39 40 41 42 43 44 45 46 47 48 49 50
000
ASUS44 KMEG 011710
RWRMEG
MEMPHIS CWA HOURLY WEATHER ROUNDUP
NATIONAL WEATHER SERVICE MEMPHIS TN
1200 PM CDT SUN MAY 01 2016

...WEST TENNESSEE...

CITY           SKY/WX    TMP DP  RH WIND       PRES   REMARKS
MEMPHIS INTL   PTSUNNY   80  69  69 S6        29.94F
NWS MEMPHIS      N/A     81 N/A N/A MISG        N/A
JACKSON        PTSUNNY   80  67  64 S10       29.94F
LEXINGTON      PTSUNNY   75  68  78 VRB6      29.95F
DYERSBURG      PTSUNNY   79  66  65 SW8         N/A
UNION CITY     PTSUNNY   79  70  73 SW9       29.91F


...EASTERN ARKANSAS...

CITY           SKY/WX    TMP DP  RH WIND       PRES   REMARKS
JONESBORO      MOSUNNY   74  62  66 NW8       29.95R
WEST MEMPHIS   PTSUNNY   78  72  81 S6        29.92F
BATESVILLE     SUNNY     72  57  60 W9        29.98S
NEWPORT        SUNNY     74  60  61 NW9       29.97F
WALNUT RIDGE   MOSUNNY   72  57  60 NW7       29.96S
BLYTHEVILLE    CLOUDY    75  68  78 W12       29.94R
SEARCY         CLOUDY    73  61  65 NW6       29.98S
STUTTGART      PTSUNNY   73  66  78 N8        29.96R
PINE BLUFF     PTSUNNY   75  66  73 N9        29.96R
MONTICELLO     CLOUDY    74  70  87 E3        29.95R


...NORTH MISSISSIPPI...

CITY           SKY/WX    TMP DP  RH WIND       PRES   REMARKS
TUPELO         PTSUNNY   77  66  68 SE7       29.97S
OXFORD         CLOUDY    73  66  78 S6        29.98R
BATESVILLE     CLOUDY    74  67  79 SE3       29.96S
OLIVE BRANCH   CLOUDY    73  73 100 SE5       29.95S
TUNICA         CLOUDY    73  68  83 SW7       29.95S
CORINTH        CLOUDY    75  66  73 SE7       29.96F
GREENWOOD      CLOUDY    73  66  78 S15       29.97R
COLUMBUS       LGT RAIN  68  66  94 SE8       29.98F
STARKVILLE     TSTM      66  64  94 SE6       29.99R
GOLDEN TRIANGL TSTM      66  64  94 E7        29.97F


...SOUTHEAST MISSOURI...

CITY           SKY/WX    TMP DP  RH WIND       PRES   REMARKS
KENNETT        PTSUNNY   75  66  73 VRB7      29.94S HAZE
WEST PLAINS    SUNNY     68  51  54 W7        29.99S
POPLAR BLUFF   SUNNY     74  62  66 W9        29.94R
CAPE GIRARDEAU PTSUNNY   74  62  66 SW7       29.93S


...NORTHWEST ALABAMA...

CITY           SKY/WX    TMP DP  RH WIND       PRES   REMARKS


...MIDDLE TENNESSEE...

CITY           SKY/WX    TMP DP  RH WIND       PRES   REMARKS
NASHVILLE      MOSUNNY   77  63  61 S10       29.97S
CLARKSVILLE    PTSUNNY   75  66  73 SW5       29.94F
COLUMBIA       CLOUDY    75  75 100 S9        29.97S


...WESTERN KENTUCKY...

CITY           SKY/WX    TMP DP  RH WIND       PRES   REMARKS
PADUCAH        CLOUDY    73  66  78 S5        29.93S
FORT CAMPBELL  MOSUNNY   75  67  75 SW6       29.94F


...CENTRAL ARKANSAS...

CITY           SKY/WX    TMP DP  RH WIND       PRES   REMARKS
LITTLE ROCK    PTSUNNY   78  61  55 N12       29.97S


SKY/WX REPORTED AS FAIR MEANS FEW OR NO CLOUDS BELOW
12 THOUSAND FEET.




USA.gov is the U.S. government's official web portal to all federal, state and local government web resources and services.